Change the Weather History Date:

Sunday, October 5, 2014

  Actual Average Record
Temperature  
Mean Temperature 46 °F -  
Max Temperature 66 °F 61 °F 73 °F (1997)
Min Temperature 26 °F 27 °F 19 °F (1998)
Degree Days  
Heating Degree Days 19    
Moisture  
Dew Point 26 °F    
Average Humidity 52    
Maximum Humidity 80    
Minimum Humidity 16    
Precipitation  
Precipitation 0.00 in - - ()
Sea Level Pressure  
Sea Level Pressure 30.28 in    
Wind  
Wind Speed 3 mph (NW)    
Max Wind Speed 17 mph    
Max Gust Speed 24 mph    
Visibility 10 miles    
Events      
Averages and records for this station are not official NWS values.
T = Trace of Precipitation, MM = Missing Value Source: NWS Daily Summary

Daily Weather History Graph

Daily Weather History Graph

Search for Another Location

Airport or City:

Trip Planner

Search our weather history database for the weather conditions in past years. The results will help you decide how hot, cold, wet, or windy it might be!

Date:

Astronomy

Oct. 05, 2014 Rise Set
Actual Time 7:07 AM MDT 6:44 PM MDT
Civil Twilight 6:40 AM MDT 7:10 PM MDT
Nautical Twilight 6:10 AM MDT 7:41 PM MDT
Astronomical Twilight 5:39 AM MDT 8:12 PM MDT
Moon 5:02 PM MDT (10/5) 3:49 AM MDT (10/5)
Length of Visible Light 12h 29m
Length of Day
11h 36m
Waxing Gibbous, 90% of the Moon is Illuminated
Oct 5
Waxing Gibbous
Oct 8
Full
Oct 15
Last Quarter
Oct 23
New
Oct 30
First Quarter

Hourly Weather History & Observations

Time (MDT) Temp. Windchill Dew Point Humidity Pressure Visibility Wind Dir Wind Speed Gust Speed Precip Events Conditions
12:15 AM 39.2 °F 37.0 °F 26.6 °F 61% 30.30 in 10.0 mi NNE 3.5 mph - N/A   Clear
12:35 AM 37.4 °F - 26.6 °F 65% 30.29 in 10.0 mi North - - N/A   Clear
12:55 AM 35.6 °F - 24.8 °F 65% 30.29 in 10.0 mi Calm Calm - N/A   Clear
1:15 AM 35.6 °F - 24.8 °F 65% 30.29 in 10.0 mi Calm Calm - N/A   Clear
1:35 AM 35.6 °F - 26.6 °F 70% 30.29 in 10.0 mi Calm Calm - N/A   Clear
1:55 AM 35.6 °F - 26.6 °F 70% 30.30 in 10.0 mi Calm Calm - N/A   Clear
2:15 AM 33.8 °F - 26.6 °F 75% 30.30 in 10.0 mi Calm Calm - N/A   Clear
2:35 AM 30.2 °F - 24.8 °F 80% 30.30 in 10.0 mi Calm Calm - N/A   Clear
2:55 AM 33.8 °F - 24.8 °F 70% 30.30 in 10.0 mi Calm Calm - N/A   Clear
3:15 AM 30.2 °F 26.7 °F 21.2 °F 69% 30.29 in 10.0 mi East 3.5 mph - N/A   Clear
3:35 AM 32.0 °F - 23.0 °F 69% 30.29 in 10.0 mi Calm Calm - N/A   Clear
3:55 AM 30.2 °F - 23.0 °F 75% 30.30 in 10.0 mi Calm Calm - N/A   Clear
4:15 AM 30.2 °F - 24.8 °F 80% 30.30 in 10.0 mi Calm Calm - N/A   Clear
4:35 AM 28.4 °F - 21.2 °F 74% 30.31 in 10.0 mi Calm Calm - N/A   Clear
4:55 AM 28.4 °F - 21.2 °F 74% 30.31 in 10.0 mi Calm Calm - N/A   Clear
5:15 AM 28.4 °F - 23.0 °F 80% 30.31 in 10.0 mi Calm Calm - N/A   Clear
5:35 AM 30.2 °F - 24.8 °F 80% 30.31 in 10.0 mi Calm Calm - N/A   Clear
5:55 AM 30.2 °F - 24.8 °F 80% 30.31 in 10.0 mi Calm Calm - N/A   Clear
6:15 AM 28.4 °F - 23.0 °F 80% 30.30 in 10.0 mi Calm Calm - N/A   Clear
6:35 AM 28.4 °F - 21.2 °F 74% 30.31 in 10.0 mi Calm Calm - N/A   Clear
6:55 AM 28.4 °F - 21.2 °F 74% 30.31 in 10.0 mi Calm Calm - N/A   Clear
7:15 AM 28.4 °F - 21.2 °F 74% 30.32 in 10.0 mi Calm Calm - N/A   Clear
7:35 AM 26.6 °F - 19.4 °F 74% 30.32 in 10.0 mi Calm Calm - N/A   Clear
7:55 AM 28.4 °F - 23.0 °F 80% 30.33 in 10.0 mi Calm Calm - N/A   Clear
8:15 AM 30.2 °F - 24.8 °F 80% 30.33 in 10.0 mi Calm Calm - N/A   Clear
8:35 AM 32.0 °F - 26.6 °F 80% 30.33 in 10.0 mi Calm Calm - N/A   Clear
8:55 AM 33.8 °F - 26.6 °F 75% 30.33 in 10.0 mi Calm Calm - N/A   Clear
9:15 AM 37.4 °F 34.9 °F 26.6 °F 65% 30.34 in 10.0 mi NNE 3.5 mph - N/A   Clear
9:35 AM 39.2 °F - 28.4 °F 65% 30.33 in 10.0 mi Calm Calm - N/A   Clear
9:55 AM 42.8 °F - 28.4 °F 57% 30.34 in 10.0 mi Calm Calm - N/A   Clear
10:15 AM 44.6 °F - 30.2 °F 57% 30.33 in 10.0 mi Calm Calm - N/A   Clear
10:35 AM 44.6 °F - 28.4 °F 53% 30.32 in 10.0 mi Calm Calm - N/A   Clear
10:55 AM 46.4 °F 45.2 °F 30.2 °F 53% 30.32 in 10.0 mi ENE 3.5 mph - N/A   Clear
11:15 AM 50.0 °F - 30.2 °F 47% 30.31 in 10.0 mi Calm Calm - N/A   Clear
11:35 AM 51.8 °F - 30.2 °F 44% 30.30 in 10.0 mi WSW 5.8 mph - N/A   Clear
11:55 AM 53.6 °F - 30.2 °F 41% 30.29 in 10.0 mi WSW 8.1 mph - N/A   Clear
12:15 PM 57.2 °F - 30.2 °F 36% 30.28 in 10.0 mi SSW 4.6 mph - N/A   Clear
12:35 PM 59.0 °F - 30.2 °F 34% 30.27 in 10.0 mi SW 8.1 mph - N/A   Clear
12:55 PM 60.8 °F - 28.4 °F 29% 30.26 in 10.0 mi South 6.9 mph - N/A   Clear
1:15 PM 60.8 °F - 28.4 °F 29% 30.25 in 10.0 mi SW 10.4 mph - N/A   Clear
1:35 PM 62.6 °F - 26.6 °F 26% 30.24 in 10.0 mi North 8.1 mph - N/A   Clear
1:55 PM 62.6 °F - 26.6 °F 26% 30.23 in 10.0 mi NNW 9.2 mph 17.3 mph N/A   Clear
2:15 PM 64.4 °F - 23.0 °F 21% 30.23 in 10.0 mi NNW 13.8 mph 20.7 mph N/A   Clear
2:35 PM 64.4 °F - 23.0 °F 21% 30.22 in 10.0 mi North 16.1 mph 24.2 mph N/A   Clear
2:55 PM 64.4 °F - 21.2 °F 19% 30.21 in 10.0 mi NNW 12.7 mph - N/A   Clear
3:15 PM 66.2 °F - 21.2 °F 18% 30.21 in 10.0 mi NNW 17.3 mph 21.9 mph N/A   Clear
3:35 PM 64.4 °F - 17.6 °F 16% 30.21 in 10.0 mi NNW 12.7 mph - N/A   Clear
3:55 PM 64.4 °F - 19.4 °F 18% 30.21 in 10.0 mi NNW 6.9 mph - N/A   Clear
4:15 PM 64.4 °F - 19.4 °F 18% 30.21 in 10.0 mi NNW 13.8 mph 19.6 mph N/A   Clear
4:35 PM 64.4 °F - 19.4 °F 18% 30.21 in 10.0 mi WSW 6.9 mph - N/A   Clear
4:55 PM 64.4 °F - 19.4 °F 18% 30.21 in 10.0 mi NW 12.7 mph - N/A   Clear
5:15 PM 62.6 °F - 26.6 °F 26% 30.22 in 10.0 mi West 10.4 mph 17.3 mph N/A   Clear
5:35 PM 62.6 °F - 28.4 °F 27% 30.22 in 10.0 mi West 8.1 mph 19.6 mph N/A   Clear
5:55 PM 62.6 °F - 28.4 °F 27% 30.22 in 10.0 mi WNW 8.1 mph - N/A   Clear
6:15 PM 60.8 °F - 26.6 °F 27% 30.23 in 10.0 mi WNW 8.1 mph - N/A   Clear
6:35 PM 59.0 °F - 28.4 °F 31% 30.23 in 10.0 mi Calm Calm - N/A   Clear
6:55 PM 55.4 °F - 30.2 °F 38% 30.24 in 10.0 mi West 4.6 mph - N/A   Clear
7:15 PM 55.4 °F - 28.4 °F 36% 30.25 in 10.0 mi WNW 5.8 mph - N/A   Clear
7:35 PM 53.6 °F - 26.6 °F 35% 30.26 in 10.0 mi WNW 3.5 mph - N/A   Clear
7:55 PM 51.8 °F - 26.6 °F 38% 30.27 in 10.0 mi WNW 3.5 mph - N/A   Clear
8:15 PM 50.0 °F - 30.2 °F 47% 30.27 in 10.0 mi Calm Calm - N/A   Clear
8:35 PM 50.0 °F - 28.4 °F 43% 30.28 in 10.0 mi WSW 8.1 mph - N/A   Clear
8:55 PM 48.2 °F - 28.4 °F 46% 30.28 in 10.0 mi Calm Calm - N/A   Clear
9:15 PM 48.2 °F - 30.2 °F 50% 30.29 in 10.0 mi Calm Calm - N/A   Clear
9:35 PM 46.4 °F 44.3 °F 30.2 °F 53% 30.30 in 10.0 mi NW 4.6 mph - N/A   Clear
9:55 PM 46.4 °F 44.3 °F 28.4 °F 50% 30.30 in 10.0 mi North 4.6 mph - N/A   Clear
10:15 PM 46.4 °F 42.9 °F 28.4 °F 50% 30.30 in 10.0 mi North 6.9 mph - N/A   Clear
10:35 PM 44.6 °F - 28.4 °F 53% 30.30 in 10.0 mi Calm Calm - N/A   Clear
10:55 PM 42.8 °F - 28.4 °F 57% 30.30 in 10.0 mi Calm Calm - N/A   Clear
11:15 PM 42.8 °F 38.6 °F 28.4 °F 57% 30.30 in 10.0 mi NNW 6.9 mph - N/A   Clear
11:35 PM 39.2 °F 34.2 °F 28.4 °F 65% 30.30 in 10.0 mi NNW 6.9 mph - N/A   Clear
11:55 PM 39.2 °F 37.0 °F 28.4 °F 65% 30.30 in 10.0 mi North 3.5 mph - N/A   Clear